timestamp,wind_dir_avg,wind_spd_avg,wind_spd_max_dir,wind_spd_gust,battery_voltage,lat,long
2021-02-18 00:04:01+00:00,343.0,10.62,337.0,11.89,12.57,47.59359,-54.27349
2021-02-18 00:14:01+00:00,342.0,10.22,337.0,12.06,12.49,47.59359,-54.27349
2021-02-18 00:24:01+00:00,347.0,10.26,344.0,11.53,12.49,47.59359,-54.27349
2021-02-18 00:34:01+00:00,341.0,9.83,340.0,11.92,12.49,47.59359,-54.27349
2021-02-18 00:44:01+00:00,337.0,8.44,330.0,10.18,12.49,47.59359,-54.27349
2021-02-18 00:54:01+00:00,334.0,9.12,338.0,10.56,12.49,47.59359,-54.27349
2021-02-18 01:04:01+00:00,329.0,10.22,334.0,11.45,12.49,47.59359,-54.27349
2021-02-18 01:14:01+00:00,345.0,12.03,345.0,13.54,12.41,47.59359,-54.27349
2021-02-18 01:24:01+00:00,338.0,10.77,339.0,12.87,12.41,47.59359,-54.27349
2021-02-18 01:34:01+00:00,341.0,9.15,344.0,10.8,12.41,47.59359,-54.27349
2021-02-18 01:44:01+00:00,339.0,9.16,337.0,11.77,12.41,47.59359,-54.27349
2021-02-18 01:54:01+00:00,328.0,7.29,339.0,8.37,12.41,47.59359,-54.27349
2021-02-18 02:04:01+00:00,333.0,8.87,335.0,11.26,12.41,47.59359,-54.27349
2021-02-18 02:14:01+00:00,337.0,9.01,332.0,10.86,12.41,47.59359,-54.27349
2021-02-18 02:24:01+00:00,337.0,8.65,339.0,9.38,12.41,47.59359,-54.27349
2021-02-18 02:34:01+00:00,341.0,7.96,345.0,9.36,12.41,47.59359,-54.27349
2021-02-18 02:44:01+00:00,328.0,7.52,325.0,8.75,12.41,47.59359,-54.27349
2021-02-18 02:54:01+00:00,323.0,8.5,326.0,9.85,12.41,47.59359,-54.27349
2021-02-18 03:04:01+00:00,337.0,8.88,345.0,9.69,12.41,47.59359,-54.27349
2021-02-18 03:14:01+00:00,332.0,8.13,323.0,9.12,12.41,47.59359,-54.27349
2021-02-18 03:24:01+00:00,319.0,6.78,323.0,7.95,12.41,47.59359,-54.27349
2021-02-18 03:34:01+00:00,308.0,6.89,309.0,8.87,12.41,47.59359,-54.27349
2021-02-18 03:44:01+00:00,317.0,6.75,314.0,8.31,12.41,47.59359,-54.27349
2021-02-18 03:54:01+00:00,322.0,6.9,324.0,9.79,12.41,47.59359,-54.27349
2021-02-18 04:04:01+00:00,313.0,7.49,316.0,8.81,12.41,47.59359,-54.27349
2021-02-18 04:14:01+00:00,304.0,8.68,297.0,10.34,12.41,47.59359,-54.27349
2021-02-18 04:24:01+00:00,311.0,8.89,317.0,10.94,12.41,47.59359,-54.27349
2021-02-18 04:34:01+00:00,314.0,8.42,311.0,11.74,12.41,47.59359,-54.27349
2021-02-18 04:44:01+00:00,321.0,7.71,320.0,8.74,12.41,47.59359,-54.27349
2021-02-18 04:54:01+00:00,310.0,7.01,310.0,7.85,12.41,47.59359,-54.27349
2021-02-18 05:04:01+00:00,313.0,7.79,317.0,9.42,12.41,47.59359,-54.27349
2021-02-18 05:14:01+00:00,316.0,7.01,329.0,8.5,12.33,47.59359,-54.27349
2021-02-18 05:24:01+00:00,313.0,7.17,306.0,8.64,12.33,47.59359,-54.27349
2021-02-18 05:34:01+00:00,325.0,7.56,336.0,8.9,12.33,47.59359,-54.27349
2021-02-18 05:44:01+00:00,327.0,7.28,328.0,8.18,12.33,47.59359,-54.27349
2021-02-18 05:54:01+00:00,328.0,6.76,327.0,8.19,12.33,47.59359,-54.27349
2021-02-18 06:04:01+00:00,316.0,7.48,306.0,9.44,12.33,47.59359,-54.27349
2021-02-18 06:14:01+00:00,323.0,6.78,312.0,7.93,12.33,47.59359,-54.27349
2021-02-18 06:24:01+00:00,313.0,5.75,310.0,6.83,12.33,47.59359,-54.27349
2021-02-18 06:34:01+00:00,310.0,6.6,314.0,8.05,12.33,47.59359,-54.27349
2021-02-18 06:44:01+00:00,316.0,7.25,313.0,9.22,12.33,47.59359,-54.27349
2021-02-18 06:54:01+00:00,317.0,5.96,320.0,7.44,12.33,47.59359,-54.27349
2021-02-18 07:04:01+00:00,315.0,6.95,314.0,8.07,12.33,47.59359,-54.27349
2021-02-18 07:14:01+00:00,311.0,6.02,306.0,6.89,12.17,47.59359,-54.27349
2021-02-18 07:24:01+00:00,318.0,6.23,319.0,7.51,12.17,47.59359,-54.27349
2021-02-18 07:34:01+00:00,316.0,6.52,314.0,7.26,12.17,47.59359,-54.27349
2021-02-18 07:44:01+00:00,318.0,7.49,319.0,8.95,12.17,47.59359,-54.27349
2021-02-18 07:54:01+00:00,299.0,7.36,303.0,8.32,12.17,47.59359,-54.27349
2021-02-18 08:04:01+00:00,307.0,5.13,310.0,5.82,12.17,47.59359,-54.27349
2021-02-18 08:14:01+00:00,302.0,5.72,298.0,6.57,12.25,47.59359,-54.27349
2021-02-18 08:24:01+00:00,290.0,5.9,293.0,7.1,12.25,47.59359,-54.27349
2021-02-18 08:34:01+00:00,293.0,4.98,288.0,6.96,12.25,47.59359,-54.27349
2021-02-18 08:44:01+00:00,301.0,4.87,303.0,5.8,12.25,47.59359,-54.27349
2021-02-18 08:54:01+00:00,310.0,7.06,309.0,8.89,12.25,47.59359,-54.27349
2021-02-18 09:04:01+00:00,306.0,7.11,307.0,8.07,12.25,47.59359,-54.27349
2021-02-18 09:14:01+00:00,299.0,6.64,297.0,7.57,12.25,47.59359,-54.27349
2021-02-18 09:24:01+00:00,300.0,6.87,300.0,9.0,12.25,47.59359,-54.27349
2021-02-18 09:34:01+00:00,301.0,6.1,306.0,8.85,12.25,47.59359,-54.27349
2021-02-18 09:44:01+00:00,286.0,6.28,282.0,7.87,12.25,47.59359,-54.27349
2021-02-18 09:54:01+00:00,301.0,7.18,326.0,8.93,12.25,47.59359,-54.27349
2021-02-18 10:04:01+00:00,310.0,6.22,318.0,7.64,12.25,47.59359,-54.27349
2021-02-18 10:14:01+00:00,306.0,6.28,311.0,8.12,12.25,47.59359,-54.27349
2021-02-18 10:24:01+00:00,308.0,5.06,303.0,6.17,12.25,47.59359,-54.27349
2021-02-18 10:34:01+00:00,285.0,5.67,273.0,7.23,12.25,47.59359,-54.27349
2021-02-18 10:44:01+00:00,287.0,7.12,287.0,8.34,12.25,47.59359,-54.27349
2021-02-18 10:54:01+00:00,292.0,7.98,288.0,8.89,12.25,47.59359,-54.27349
2021-02-18 11:04:01+00:00,290.0,7.08,305.0,9.9,12.25,47.59359,-54.27349
2021-02-18 12:14:01+00:00,290.0,7.42,290.0,9.34,12.97,47.59359,-54.27349
2021-02-18 12:24:01+00:00,297.0,7.92,298.0,8.95,12.97,47.59359,-54.27349
2021-02-18 12:34:01+00:00,299.0,7.51,305.0,9.03,12.97,47.59359,-54.27349
2021-02-18 12:44:01+00:00,285.0,8.32,290.0,9.4,12.97,47.59359,-54.27349
2021-02-18 12:54:01+00:00,301.0,8.05,298.0,8.84,12.97,47.59359,-54.27349
2021-02-18 13:04:01+00:00,308.0,8.85,309.0,11.51,12.97,47.59359,-54.27349
2021-02-18 13:14:01+00:00,300.0,8.49,303.0,9.78,13.84,47.59359,-54.27349
2021-02-18 13:24:01+00:00,305.0,6.71,303.0,8.21,13.84,47.59359,-54.27349
2021-02-18 13:34:01+00:00,302.0,10.24,292.0,15.22,13.84,47.59359,-54.27349
2021-02-18 13:44:01+00:00,307.0,8.82,306.0,10.36,13.84,47.59359,-54.27349
2021-02-18 13:54:01+00:00,301.0,7.87,299.0,9.54,13.84,47.59359,-54.27349
2021-02-18 14:04:01+00:00,294.0,7.76,285.0,9.16,13.84,47.59359,-54.27349
2021-02-18 14:14:01+00:00,299.0,8.23,288.0,10.11,13.68,47.59359,-54.27349
2021-02-18 14:24:01+00:00,319.0,9.36,321.0,11.11,13.68,47.59359,-54.27349
2021-02-18 14:34:01+00:00,302.0,7.84,289.0,9.91,13.68,47.59359,-54.27349
2021-02-18 14:44:01+00:00,291.0,12.03,290.0,15.07,13.68,47.59359,-54.27349
2021-02-18 14:54:01+00:00,308.0,8.12,305.0,9.5,13.68,47.59359,-54.27349
2021-02-18 15:04:01+00:00,301.0,10.48,291.0,14.83,13.68,47.59359,-54.27349
2021-02-18 15:14:01+00:00,305.0,10.03,302.0,12.2,14.24,47.59359,-54.27349
2021-02-18 15:24:01+00:00,305.0,7.5,298.0,9.05,14.24,47.59359,-54.27349
2021-02-18 15:34:01+00:00,314.0,8.42,317.0,10.2,14.24,47.59359,-54.27349
2021-02-18 15:44:01+00:00,292.0,11.34,290.0,15.72,14.24,47.59359,-54.27349
2021-02-18 15:54:01+00:00,307.0,10.71,303.0,14.86,14.24,47.59359,-54.27349
2021-02-18 16:04:01+00:00,305.0,8.76,306.0,10.31,14.24,47.59359,-54.27349
2021-02-18 16:14:01+00:00,292.0,12.41,289.0,14.43,13.68,47.59359,-54.27349
2021-02-18 16:24:01+00:00,301.0,9.79,297.0,12.45,13.68,47.59359,-54.27349
2021-02-18 16:34:01+00:00,298.0,13.65,298.0,16.23,13.68,47.59359,-54.27349
2021-02-18 16:44:01+00:00,309.0,11.48,308.0,15.3,13.68,47.59359,-54.27349
2021-02-18 16:54:01+00:00,307.0,10.09,304.0,12.14,13.68,47.59359,-54.27349
2021-02-18 17:04:01+00:00,295.0,13.41,291.0,15.09,13.68,47.59359,-54.27349
2021-02-18 17:14:01+00:00,306.0,10.84,298.0,14.89,13.76,47.59359,-54.27349
2021-02-18 17:24:01+00:00,308.0,11.52,302.0,15.1,13.76,47.59359,-54.27349
2021-02-18 17:34:01+00:00,308.0,10.64,302.0,15.1,13.76,47.59359,-54.27349
2021-02-18 17:44:01+00:00,302.0,11.34,295.0,15.07,13.76,47.59359,-54.27349
2021-02-18 17:54:01+00:00,296.0,11.22,294.0,15.22,13.76,47.59359,-54.27349
2021-02-18 18:04:01+00:00,298.0,10.21,288.0,14.07,13.76,47.59359,-54.27349
2021-02-18 18:14:01+00:00,286.0,11.15,281.0,14.75,13.92,47.59359,-54.27349
2021-02-18 18:24:01+00:00,296.0,13.46,293.0,16.18,13.92,47.59359,-54.27349
2021-02-18 18:34:01+00:00,309.0,10.31,301.0,14.6,13.92,47.59359,-54.27349
2021-02-18 18:44:01+00:00,298.0,13.65,301.0,15.95,13.92,47.59359,-54.27349
2021-02-18 18:54:01+00:00,318.0,10.02,320.0,12.88,13.92,47.59359,-54.27349
2021-02-18 19:04:01+00:00,314.0,10.24,322.0,11.94,13.92,47.59359,-54.27349
2021-02-18 19:14:01+00:00,296.0,9.59,290.0,13.39,13.76,47.59359,-54.27349
2021-02-18 19:24:01+00:00,317.0,10.93,308.0,14.09,13.76,47.59359,-54.27349
2021-02-18 19:34:01+00:00,313.0,9.25,315.0,10.95,13.76,47.59359,-54.27349
2021-02-18 19:44:01+00:00,302.0,8.76,287.0,10.02,13.76,47.59359,-54.27349
2021-02-18 19:54:01+00:00,322.0,8.77,320.0,11.28,13.76,47.59359,-54.27349
2021-02-18 20:04:01+00:00,341.0,11.39,335.0,13.04,13.76,47.59359,-54.27349
2021-02-18 20:14:01+00:00,322.0,9.0,319.0,10.61,13.68,47.59359,-54.27349
2021-02-18 20:24:01+00:00,316.0,8.99,322.0,10.61,13.68,47.59359,-54.27349
2021-02-18 20:34:01+00:00,318.0,8.94,325.0,10.76,13.68,47.59359,-54.27349
2021-02-18 20:44:01+00:00,309.0,9.6,312.0,11.14,13.68,47.59359,-54.27349
2021-02-18 20:54:01+00:00,319.0,7.87,324.0,8.73,13.68,47.59359,-54.27349
2021-02-18 21:04:01+00:00,321.0,9.89,317.0,11.45,13.68,47.59359,-54.27349
2021-02-18 21:14:01+00:00,314.0,9.15,323.0,10.66,13.21,47.59359,-54.27349
2021-02-18 21:24:01+00:00,316.0,8.75,315.0,10.16,13.21,47.59359,-54.27349
2021-02-18 21:34:01+00:00,320.0,7.83,313.0,9.31,13.21,47.59359,-54.27349
2021-02-18 21:44:01+00:00,315.0,8.59,314.0,9.85,13.21,47.59359,-54.27349
2021-02-18 21:54:01+00:00,322.0,7.34,313.0,9.12,13.21,47.59359,-54.27349
2021-02-18 22:04:01+00:00,303.0,7.2,313.0,9.05,13.21,47.59359,-54.27349
2021-02-18 22:14:01+00:00,310.0,8.56,313.0,9.74,12.65,47.59359,-54.27349
2021-02-18 22:24:01+00:00,309.0,7.45,308.0,9.13,12.65,47.59359,-54.27349
2021-02-18 22:34:01+00:00,305.0,8.1,306.0,9.83,12.65,47.59359,-54.27349
2021-02-18 22:44:01+00:00,313.0,9.02,319.0,11.05,12.65,47.59359,-54.27349
2021-02-18 22:54:01+00:00,322.0,7.81,322.0,9.51,12.65,47.59359,-54.27349
2021-02-18 23:04:01+00:00,319.0,8.06,320.0,9.23,12.65,47.59359,-54.27349
2021-02-18 23:14:01+00:00,313.0,6.35,316.0,7.95,12.49,47.59359,-54.27349
2021-02-18 23:24:01+00:00,305.0,5.08,304.0,6.38,12.49,47.59359,-54.27349
2021-02-18 23:34:01+00:00,317.0,7.41,319.0,9.5,12.49,47.59359,-54.27349
2021-02-18 23:44:01+00:00,328.0,6.76,330.0,8.19,12.49,47.59359,-54.27349
2021-02-18 23:54:01+00:00,311.0,6.7,316.0,7.8,12.49,47.59359,-54.27349
